QPF
0.00 0.00 0.00 0.00 0.00 0.00 0.00 0.00 0.00 0.00 0.00 0.00 0.00 0.00 0.00 0.00 0.00 0.00 0.00 0.00 0.00 0.00 0.00 0.00 0.00 0.00 0.00 0.00 0.00 0.00 0.00 0.01
0.00 0.00 0.00 0.00 0.00 0.00 0.00 0.00 0.00 0.00 0.00 0.00 0.00 0.00 0.00 0.00 0.00 0.00 0.00 0.00 0.00 0.00 0.00 0.00 0.00 0.00 0.00 0.00 0.00 0.00 0.00 0.01
0.00 0.00 0.00 0.00 0.00 0.00 0.00 0.00 0.00 0.00 0.00 0.00 0.00 0.00 0.00 0.00 0.00 0.00 0.00 0.00 0.00 0.00 0.00 0.00 0.00 0.00 0.00 0.00 0.00 0.00 0.00 0.00
0.00 0.00 0.00 0.00 0.00 0.00 0.00 0.00 0.00 0.00 0.00 0.00 0.00 0.00 0.00 0.00 0.00 0.00 0.00 0.00 0.00 0.00 0.00 0.00 0.00 0.00 0.00 0.00 0.00 0.00 0.00 0.00
0.00 0.00 0.00 0.00 0.00 0.00 0.00 0.00 0.00 0.00 0.00 0.00 0.00 0.00 0.00 0.00 0.00 0.00 0.00 0.00 0.00 0.00 0.00 0.00 0.00 0.00 0.00 0.00 0.00 0.00 0.00 0.00
0.00 0.00 0.00 0.00 0.00 0.00 0.00 0.00 0.00 0.00 0.00 0.00 0.00 0.00 0.00 0.00 0.00 0.00 0.00 0.00 0.00 0.00 0.00 0.00 0.00 0.00 0.00 0.00 0.00 0.00 0.00 0.00
0.00 0.00 0.00 0.00 0.00 0.00 0.00 0.00 0.00 0.00 0.00 0.00 0.00 0.00 0.00 0.00 0.00 0.00 0.00 0.00 0.00 0.00 0.00 0.00 0.00 0.00 0.00 0.00 0.00 0.00 0.00 0.00
0.00 0.00 0.00 0.00 0.00 0.00 0.00 0.00 0.00 0.00 0.00 0.00 0.00 0.00 0.00 0.00 0.00 0.00 0.00 0.00 0.00 0.00 0.00 0.00 0.00 0.00 0.00 0.00 0.00 0.00 0.00 0.00
0.00 0.00 0.00 0.00 0.00 0.00 0.00 0.00 0.00 0.00 0.00 0.00 0.00 0.00 0.00 0.00 0.00 0.00 0.00 0.00 0.00 0.00 0.00 0.00 0.00 0.00 0.00 0.00 0.00 0.00 0.00 0.00
0.00 0.00 0.00 0.00 0.00 0.00 0.00 0.00 0.00 0.00 0.00 0.00 0.00 0.00 0.00 0.00 0.00 0.00 0.00 0.00 0.00 0.00 0.00 0.00 0.00 0.00 0.00 0.00 0.00 0.00 0.00 0.00
0.00 0.00 0.00 0.00 0.00 0.00 0.00 0.00 0.00 0.00 0.00 0.00 0.00 0.00 0.00 0.00 0.00 0.00 0.00 0.00 0.00 0.00 0.00 0.00 0.00 0.00 0.00 0.00 0.00 0.00 0.00 0.00
0.00 0.00 0.00 0.00 0.00 0.00 0.00 0.00 0.00 0.00 0.00 0.00 0.00 0.00 0.00 0.00 0.00 0.00 0.00 0.00 0.00 0.00 0.00 0.00 0.00 0.00 0.00 0.00 0.00 0.00 0.00 0.00
0.00 0.00 0.00 0.00 0.00 0.00 0.00 0.00 0.00 0.00 0.00 0.00 0.00 0.00 0.00 0.00 0.00 0.00 0.00 0.00 0.00 0.00 0.00 0.00 0.00 0.00 0.00 0.00 0.00 0.00 0.00 0.00
0.00 0.00 0.00 0.00 0.00 0.00 0.00 0.00 0.00 0.00 0.00 0.00 0.00 0.00 0.00 0.00 0.00 0.00 0.00 0.00 0.00 0.00 0.00 0.00 0.00 0.00 0.00 0.00 0.00 0.00 0.00 0.00
0.00 0.00 0.00 0.00 0.00 0.00 0.00 0.00 0.00 0.00 0.00 0.00 0.00 0.00 0.00 0.00 0.00 0.00 0.00 0.00 0.00 0.00 0.00 0.00 0.00 0.00 0.00 0.00 0.00 0.00 0.00 0.00
0.00 0.00 0.00 0.00 0.00 0.00 0.00 0.00 0.00 0.00 0.00 0.00 0.00 0.00 0.00 0.00 0.00 0.00 0.00 0.00 0.00 0.00 0.00 0.00 0.00 0.00 0.00 0.00 0.00 0.00 0.00 0.00
0.00 0.00 0.00 0.00 0.00 0.00 0.00 0.00 0.00 0.00 0.00 0.00 0.00 0.00 0.00 0.00 0.00 0.00 0.00 0.00 0.00 0.00 0.00 0.00 0.00 0.00 0.00 0.00 0.00 0.00 0.00 0.00
0.00 0.00 0.00 0.00 0.00 0.00 0.00 0.00 0.00 0.00 0.00 0.00 0.00 0.00 0.00 0.00 0.00 0.00 0.00 0.00 0.00 0.00 0.00 0.00 0.00 0.00 0.00 0.00 0.00 0.00 0.00 0.00
0.00 0.00 0.00 0.00 0.00 0.00 0.00 0.00 0.00 0.00 0.00 0.00 0.00 0.00 0.00 0.00 0.00 0.00 0.00 0.00 0.00 0.00 0.00 0.00 0.00 0.00 0.00 0.00 0.00 0.00 0.00 0.00
MSLP
1022.30 1022.17 1022.18 1022.26 1022.37 1022.67 1022.56 1022.17 1021.86 1021.48 1021.32 1021.07 1021.42 1021.75 1022.13 1022.22 1022.53 1022.53 1022.54 1022.46 1022.22 1021.98 1022.06 1022.12 1021.94 1021.74 1021.44 1021.05 1020.55 1020.03 1019.58 1019.07
1022.31 1022.65 1022.53 1022.54 1022.45 1022.96 1022.91 1022.81 1022.61 1022.23 1022.24 1022.26 1022.15 1022.43 1022.76 1022.92 1022.73 1023.06 1022.97 1023.06 1022.87 1022.70 1022.71 1022.64 1022.54 1022.52 1022.38 1022.04 1021.39 1020.89 1020.29 1019.59
1022.51 1022.80 1022.94 1022.51 1023.07 1023.19 1023.41 1023.36 1023.36 1022.89 1022.83 1022.78 1022.70 1022.91 1023.30 1023.16 1023.24 1023.54 1023.53 1023.59 1023.48 1023.17 1023.13 1023.12 1023.07 1023.01 1022.90 1022.55 1022.32 1021.96 1021.45 1020.89
1022.49 1022.91 1023.06 1023.07 1023.26 1023.63 1023.74 1023.74 1023.73 1023.69 1023.31 1023.24 1023.32 1023.25 1023.56 1023.63 1023.74 1024.12 1024.31 1024.11 1024.05 1023.87 1023.68 1023.52 1023.33 1023.26 1023.32 1023.18 1023.00 1022.71 1022.42 1021.95
1022.25 1022.80 1023.18 1023.41 1023.61 1023.78 1023.93 1023.88 1024.21 1024.37 1024.09 1023.88 1024.03 1024.42 1024.51 1024.43 1024.52 1024.61 1024.68 1024.59 1024.63 1024.46 1024.25 1024.08 1023.82 1023.77 1023.76 1023.57 1023.42 1023.33 1023.07 1022.81
1022.17 1022.65 1023.06 1023.37 1023.66 1023.89 1023.97 1024.39 1024.68 1024.65 1024.77 1024.61 1024.53 1025.18 1024.88 1025.05 1025.11 1025.08 1025.22 1025.27 1025.08 1024.84 1024.78 1024.62 1024.34 1024.22 1024.08 1024.18 1024.09 1023.92 1023.76 1023.62
1021.97 1022.62 1022.94 1023.44 1023.51 1024.09 1024.64 1024.64 1024.81 1025.06 1024.92 1025.32 1025.00 1025.29 1025.35 1025.74 1025.65 1025.62 1025.79 1025.76 1025.58 1025.46 1025.28 1025.17 1025.00 1024.76 1024.64 1024.69 1024.64 1024.60 1024.45 1024.15
1021.90 1022.66 1023.23 1023.67 1024.27 1024.42 1024.62 1024.86 1025.00 1025.14 1025.35 1025.45 1025.47 1025.46 1025.67 1025.85 1025.95 1026.19 1026.43 1026.30 1026.13 1026.12 1025.94 1025.71 1025.53 1025.32 1025.20 1025.17 1025.17 1025.16 1024.98 1024.74
1021.88 1022.63 1023.26 1023.77 1023.91 1024.32 1024.68 1024.81 1025.05 1025.23 1025.61 1025.61 1025.69 1025.81 1025.94 1026.03 1026.34 1026.54 1026.77 1026.52 1026.63 1026.52 1026.38 1026.12 1025.88 1025.70 1025.53 1025.48 1025.50 1025.40 1025.33 1025.11
1021.30 1022.29 1022.84 1023.46 1024.04 1024.48 1024.48 1024.71 1025.18 1025.32 1025.64 1025.87 1025.97 1026.25 1026.28 1026.42 1026.78 1026.83 1027.11 1026.95 1026.76 1026.88 1026.55 1026.32 1026.03 1025.67 1025.58 1025.66 1026.02 1026.03 1025.76 1025.40
1021.15 1021.91 1022.64 1023.22 1023.74 1024.15 1024.49 1024.67 1025.09 1025.37 1025.77 1025.95 1026.26 1026.24 1026.35 1026.65 1026.95 1027.31 1027.34 1027.19 1027.01 1026.76 1026.45 1026.17 1025.82 1025.79 1025.89 1026.18 1026.37 1026.31 1026.10 1025.75
1020.62 1021.37 1022.12 1022.85 1023.51 1024.19 1024.54 1024.70 1025.08 1025.37 1025.68 1025.99 1026.12 1026.32 1026.67 1026.88 1027.20 1027.24 1027.16 1027.01 1026.75 1026.40 1026.21 1026.17 1026.19 1026.05 1026.31 1026.50 1026.57 1026.49 1026.19 1025.74
1019.94 1020.74 1021.72 1022.67 1023.36 1023.86 1024.25 1024.64 1024.95 1025.20 1025.57 1025.90 1026.24 1026.54 1026.77 1027.09 1027.09 1027.11 1026.93 1026.76 1026.60 1026.47 1026.42 1026.41 1026.34 1026.34 1026.58 1026.72 1026.76 1026.58 1026.27 1025.83
1019.38 1020.29 1021.31 1022.12 1022.81 1023.41 1024.01 1024.47 1024.84 1025.10 1025.48 1025.91 1026.35 1026.63 1026.82 1027.03 1027.08 1027.01 1026.88 1026.80 1026.74 1026.61 1026.55 1026.56 1026.51 1026.50 1026.82 1026.87 1026.88 1026.66 1026.34 1025.94
1018.77 1019.75 1020.64 1021.37 1022.17 1022.98 1023.63 1024.28 1024.55 1024.99 1025.37 1025.90 1026.25 1026.54 1026.78 1026.92 1026.98 1026.97 1026.84 1026.75 1026.84 1026.77 1026.64 1026.57 1026.48 1026.72 1026.93 1027.00 1026.91 1026.68 1026.32 1025.88
1017.92 1018.96 1019.92 1020.75 1021.71 1022.55 1023.24 1023.94 1024.36 1024.78 1025.25 1025.79 1026.12 1026.36 1026.59 1026.72 1026.86 1026.93 1026.91 1026.92 1026.88 1026.80 1026.79 1026.69 1026.61 1026.78 1027.00 1027.28 1027.09 1026.68 1026.28 1025.87
1016.97 1018.03 1019.09 1020.08 1021.04 1021.94 1022.79 1023.49 1024.14 1024.54 1025.10 1025.58 1025.82 1026.13 1026.45 1026.65 1026.85 1027.03 1027.10 1027.16 1027.14 1027.06 1026.98 1026.85 1026.73 1026.81 1027.32 1027.18 1026.95 1026.68 1026.45 1026.09
1015.87 1016.96 1018.09 1019.21 1020.26 1021.19 1022.27 1023.06 1023.69 1024.33 1024.87 1025.19 1025.58 1025.96 1026.33 1026.58 1026.84 1027.06 1027.22 1027.20 1027.18 1027.10 1026.96 1026.87 1026.80 1027.20 1027.28 1027.02 1026.75 1026.55 1026.33 1025.98
1015.01 1016.11 1017.36 1018.45 1019.58 1020.68 1021.70 1022.60 1023.38 1024.07 1024.55 1024.92 1025.31 1025.73 1026.11 1026.41 1026.70 1026.99 1027.08 1027.04 1026.98 1026.90 1026.86 1026.81 1026.87 1027.22 1027.16 1026.97 1026.63 1026.41 1026.15 1025.82
Thickness
5624 5630 5634 5636 5639 5639 5642 5647 5650 5653 5653 5658 5657 5655 5651 5646 5643 5643 5641 5640 5641 5641 5639 5639 5639 5641 5642 5643 5645 5648 5652 5656
5619 5621 5626 5630 5634 5630 5633 5635 5638 5641 5639 5640 5642 5640 5638 5635 5634 5629 5631 5628 5628 5628 5626 5626 5626 5625 5624 5625 5627 5629 5634 5639
5610 5612 5616 5624 5622 5623 5623 5625 5624 5629 5629 5629 5629 5627 5623 5624 5621 5617 5616 5613 5612 5613 5612 5611 5610 5610 5608 5609 5609 5608 5611 5615
5605 5607 5609 5612 5614 5614 5614 5615 5615 5615 5618 5618 5616 5615 5612 5611 5610 5605 5600 5600 5599 5598 5598 5598 5598 5596 5593 5591 5590 5589 5588 5590
5603 5602 5602 5604 5606 5606 5605 5607 5605 5603 5604 5606 5604 5599 5597 5597 5595 5592 5590 5589 5586 5585 5585 5584 5584 5581 5578 5576 5573 5572 5570 5569
5598 5598 5599 5599 5598 5598 5599 5596 5593 5594 5592 5593 5593 5587 5589 5586 5583 5582 5579 5576 5574 5573 5571 5570 5570 5568 5566 5562 5560 5558 5556 5553
5594 5592 5593 5592 5594 5590 5584 5586 5585 5583 5585 5581 5583 5580 5579 5573 5572 5571 5567 5565 5563 5561 5559 5558 5558 5557 5555 5551 5548 5545 5543 5541
5588 5584 5582 5581 5578 5579 5578 5577 5577 5577 5576 5575 5573 5573 5569 5566 5564 5559 5555 5554 5553 5552 5550 5549 5548 5547 5545 5542 5539 5535 5533 5530
5578 5576 5574 5574 5577 5573 5571 5572 5572 5571 5568 5568 5566 5564 5561 5560 5555 5551 5547 5548 5545 5543 5542 5541 5541 5539 5538 5535 5532 5528 5524 5522
5581 5575 5573 5570 5567 5566 5568 5569 5564 5564 5561 5559 5558 5555 5554 5552 5547 5544 5541 5539 5537 5535 5535 5535 5535 5536 5533 5529 5523 5518 5516 5514
5575 5573 5569 5566 5565 5566 5563 5562 5561 5559 5556 5554 5550 5550 5548 5543 5539 5534 5533 5531 5530 5531 5532 5533 5534 5530 5525 5519 5513 5509 5506 5504
5576 5573 5570 5567 5562 5559 5559 5558 5555 5553 5550 5546 5545 5542 5538 5534 5531 5529 5528 5528 5529 5530 5530 5527 5523 5520 5515 5510 5505 5501 5499 5497
5579 5576 5570 5563 5558 5556 5555 5553 5551 5548 5545 5542 5538 5535 5532 5527 5527 5526 5526 5527 5526 5525 5522 5519 5516 5512 5507 5502 5497 5494 5491 5489
5579 5574 5568 5563 5559 5555 5552 5550 5547 5544 5541 5537 5533 5530 5527 5524 5523 5523 5523 5522 5520 5519 5516 5512 5509 5506 5500 5495 5490 5486 5483 5480
5579 5573 5568 5565 5561 5555 5551 5547 5545 5541 5538 5533 5530 5526 5523 5521 5520 5519 5518 5517 5514 5512 5509 5506 5503 5498 5492 5487 5482 5478 5474 5471
5581 5574 5569 5565 5559 5554 5550 5545 5542 5538 5534 5529 5525 5523 5521 5519 5517 5515 5513 5511 5508 5506 5503 5500 5497 5491 5485 5479 5474 5470 5467 5463
5584 5579 5573 5567 5562 5556 5551 5544 5539 5535 5531 5527 5524 5522 5518 5516 5513 5510 5507 5504 5501 5499 5496 5493 5490 5485 5477 5472 5467 5462 5456 5451
5588 5583 5577 5571 5564 5559 5549 5543 5538 5533 5529 5526 5522 5519 5515 5512 5509 5505 5501 5499 5496 5493 5491 5489 5485 5477 5470 5465 5460 5454 5448 5442
5592 5586 5579 5572 5564 5557 5549 5543 5537 5532 5527 5524 5520 5516 5513 5509 5505 5501 5498 5496 5493 5490 5487 5483 5478 5470 5464 5459 5454 5448 5440 5433